Year,Month,Day,Hour,Minute,Value (Times are PST for temperature in C)
2009,02,12,00,00,0.00
2009,02,12,00,01,0.00
2009,02,12,00,02,0.00
2009,02,12,00,03,0.00
2009,02,12,00,04,0.00
2009,02,12,00,05,0.00
2009,02,12,00,06,0.00
2009,02,12,00,07,0.00
2009,02,12,00,08,0.00
2009,02,12,00,09,0.00
2009,02,12,00,10,0.00
2009,02,12,00,11,0.00
2009,02,12,00,12,0.00
2009,02,12,00,13,0.00
2009,02,12,00,14,0.00
2009,02,12,00,15,0.00
2009,02,12,00,16,0.00
2009,02,12,00,17,0.00
2009,02,12,00,18,0.00
2009,02,12,00,19,0.00
2009,02,12,00,20,0.00
2009,02,12,00,21,0.00
2009,02,12,00,22,0.00
2009,02,12,00,23,0.00
2009,02,12,00,24,0.00
2009,02,12,00,25,0.00
2009,02,12,00,26,0.10
2009,02,12,00,27,0.10
2009,02,12,00,28,0.10
2009,02,12,00,29,0.10
2009,02,12,00,30,0.10
2009,02,12,00,31,0.10
2009,02,12,00,32,0.10
2009,02,12,00,33,0.10
2009,02,12,00,34,0.10
2009,02,12,00,35,0.10
2009,02,12,00,36,0.10
2009,02,12,00,37,0.10
2009,02,12,00,38,0.10
2009,02,12,00,39,0.10
2009,02,12,00,40,0.20
2009,02,12,00,41,0.20
2009,02,12,00,42,0.20
2009,02,12,00,43,0.20
2009,02,12,00,44,0.20
2009,02,12,00,45,0.20
2009,02,12,00,46,0.20
2009,02,12,00,47,0.20
2009,02,12,00,48,0.20
2009,02,12,00,49,0.20
2009,02,12,00,50,0.20
2009,02,12,00,51,0.20
2009,02,12,00,52,0.20
2009,02,12,00,53,0.30
2009,02,12,00,54,0.30
2009,02,12,00,55,0.30
2009,02,12,00,56,0.30
2009,02,12,00,57,0.30
2009,02,12,00,58,0.30
2009,02,12,00,59,0.40
2009,02,12,01,00,0.40
2009,02,12,01,01,0.40
2009,02,12,01,02,0.50
2009,02,12,01,03,0.50
2009,02,12,01,04,0.50
2009,02,12,01,05,0.50
2009,02,12,01,06,0.50
2009,02,12,01,07,0.50
2009,02,12,01,08,0.50
2009,02,12,01,09,0.50
2009,02,12,01,10,0.50
2009,02,12,01,11,0.50
2009,02,12,01,12,0.50
2009,02,12,01,13,0.50
2009,02,12,01,14,0.50
2009,02,12,01,15,0.50
2009,02,12,01,16,0.50
2009,02,12,01,17,0.50
2009,02,12,01,18,0.50
2009,02,12,01,19,0.50
2009,02,12,01,20,0.50
2009,02,12,01,21,0.50
2009,02,12,01,22,0.50
2009,02,12,01,23,0.50
2009,02,12,01,24,0.50
2009,02,12,01,25,0.50
2009,02,12,01,26,0.50
2009,02,12,01,27,0.50
2009,02,12,01,28,0.40
2009,02,12,01,29,0.40
2009,02,12,01,30,0.40
2009,02,12,01,31,0.40
2009,02,12,01,32,0.40
2009,02,12,01,33,0.40
2009,02,12,01,34,0.40
2009,02,12,01,35,0.40
2009,02,12,01,36,0.40
2009,02,12,01,37,0.40
2009,02,12,01,38,0.40
2009,02,12,01,39,0.40
2009,02,12,01,40,0.40
2009,02,12,01,41,0.40
2009,02,12,01,42,0.40
2009,02,12,01,43,0.40
2009,02,12,01,44,0.40
2009,02,12,01,45,0.40
2009,02,12,01,46,0.40
2009,02,12,01,47,0.40
2009,02,12,01,48,0.40
2009,02,12,01,49,0.40
2009,02,12,01,50,0.40
2009,02,12,01,51,0.40
2009,02,12,01,52,0.40
2009,02,12,01,53,0.40
2009,02,12,01,54,0.40
2009,02,12,01,55,0.40
2009,02,12,01,56,0.40
2009,02,12,01,57,0.30
2009,02,12,01,58,0.40
2009,02,12,01,59,0.30
2009,02,12,02,00,0.30
2009,02,12,02,01,0.30
2009,02,12,02,02,0.30
2009,02,12,02,03,0.30
2009,02,12,02,04,0.30
2009,02,12,02,05,0.30
2009,02,12,02,06,0.30
2009,02,12,02,07,0.30
2009,02,12,02,08,0.30
2009,02,12,02,09,0.30
2009,02,12,02,10,0.40
2009,02,12,02,11,0.40
2009,02,12,02,12,0.40
2009,02,12,02,13,0.40
2009,02,12,02,14,0.40
2009,02,12,02,15,0.40
2009,02,12,02,16,0.40
2009,02,12,02,17,0.40
2009,02,12,02,18,0.40
2009,02,12,02,19,0.40
2009,02,12,02,20,0.40
2009,02,12,02,21,0.40
2009,02,12,02,22,0.40
2009,02,12,02,23,0.40
2009,02,12,02,24,0.40
2009,02,12,02,25,0.40
2009,02,12,02,26,0.40
2009,02,12,02,27,0.40
2009,02,12,02,28,0.40
2009,02,12,02,29,0.40
2009,02,12,02,30,0.40
2009,02,12,02,31,0.40
2009,02,12,02,32,0.40
2009,02,12,02,33,0.40
2009,02,12,02,34,0.40
2009,02,12,02,35,0.40
2009,02,12,02,36,0.40
2009,02,12,02,37,0.40
2009,02,12,02,38,0.40
2009,02,12,02,39,0.40
2009,02,12,02,40,0.40
2009,02,12,02,41,0.40
2009,02,12,02,42,0.40
2009,02,12,02,43,0.40
2009,02,12,02,44,0.40
2009,02,12,02,45,0.30
2009,02,12,02,46,0.30
2009,02,12,02,47,0.30
2009,02,12,02,48,0.30
2009,02,12,02,49,0.30
2009,02,12,02,50,0.30
2009,02,12,02,51,0.30
2009,02,12,02,52,0.30
2009,02,12,02,53,0.30
2009,02,12,02,54,0.30
2009,02,12,02,55,0.30
2009,02,12,02,56,0.30
2009,02,12,02,57,0.30
2009,02,12,02,58,0.30
2009,02,12,02,59,0.30
2009,02,12,03,00,0.30
2009,02,12,03,01,0.30
2009,02,12,03,02,0.30
2009,02,12,03,03,0.30
2009,02,12,03,04,0.30
2009,02,12,03,05,0.30
2009,02,12,03,06,0.30
2009,02,12,03,07,0.30
2009,02,12,03,08,0.40
2009,02,12,03,09,0.30
2009,02,12,03,10,0.30
2009,02,12,03,11,0.30
2009,02,12,03,12,0.40
2009,02,12,03,13,0.40
2009,02,12,03,14,0.40
2009,02,12,03,15,0.40
2009,02,12,03,16,0.40
2009,02,12,03,17,0.40
2009,02,12,03,18,0.40
2009,02,12,03,19,0.30
2009,02,12,03,20,0.30
2009,02,12,03,21,0.30
2009,02,12,03,22,0.30
2009,02,12,03,23,0.30
2009,02,12,03,24,0.30
2009,02,12,03,25,0.30
2009,02,12,03,26,0.30
2009,02,12,03,27,0.30
2009,02,12,03,28,0.30
2009,02,12,03,29,0.30
2009,02,12,03,30,0.30
2009,02,12,03,31,0.30
2009,02,12,03,32,0.30
2009,02,12,03,33,0.30
2009,02,12,03,34,0.30
2009,02,12,03,35,0.30
2009,02,12,03,36,0.30
2009,02,12,03,37,0.30
2009,02,12,03,38,0.30
2009,02,12,03,39,0.30
2009,02,12,03,40,0.30
2009,02,12,03,41,0.30
2009,02,12,03,42,0.30
2009,02,12,03,43,0.30
2009,02,12,03,44,0.30
2009,02,12,03,45,0.30
2009,02,12,03,46,0.40
2009,02,12,03,47,0.40
2009,02,12,03,48,0.40
2009,02,12,03,49,0.40
2009,02,12,03,50,0.40
2009,02,12,03,51,0.40
2009,02,12,03,52,0.40
2009,02,12,03,53,0.40
2009,02,12,03,54,0.40
2009,02,12,03,55,0.40
2009,02,12,03,56,0.40
2009,02,12,03,57,0.40
2009,02,12,03,58,0.40
2009,02,12,03,59,0.40
2009,02,12,04,00,0.40
2009,02,12,04,01,0.40
2009,02,12,04,02,0.40
2009,02,12,04,03,0.40
2009,02,12,04,04,0.40
2009,02,12,04,05,0.40
2009,02,12,04,06,0.40
2009,02,12,04,07,0.40
2009,02,12,04,08,0.40
2009,02,12,04,09,0.30
2009,02,12,04,10,0.30
2009,02,12,04,11,0.30
2009,02,12,04,12,0.30
2009,02,12,04,13,0.30
2009,02,12,04,14,0.30
2009,02,12,04,15,0.40
2009,02,12,04,16,0.30
2009,02,12,04,17,0.30
2009,02,12,04,18,0.30
2009,02,12,04,19,0.30
2009,02,12,04,20,0.30
2009,02,12,04,21,0.30
2009,02,12,04,22,0.30
2009,02,12,04,23,0.30
2009,02,12,04,24,0.30
2009,02,12,04,25,0.30
2009,02,12,04,26,0.30
2009,02,12,04,27,0.30
2009,02,12,04,28,0.30
2009,02,12,04,29,0.30
2009,02,12,04,30,0.30
2009,02,12,04,31,0.30
2009,02,12,04,32,0.30
2009,02,12,04,33,0.30
2009,02,12,04,34,0.30
2009,02,12,04,35,0.20
2009,02,12,04,36,0.20
2009,02,12,04,37,0.20
2009,02,12,04,38,0.20
2009,02,12,04,39,0.20
2009,02,12,04,40,0.20
2009,02,12,04,41,0.20
2009,02,12,04,42,0.20
2009,02,12,04,43,0.20
2009,02,12,04,44,0.20
2009,02,12,04,45,0.20
2009,02,12,04,46,0.20
2009,02,12,04,47,0.20
2009,02,12,04,48,0.20
2009,02,12,04,49,0.20
2009,02,12,04,50,0.20
2009,02,12,04,51,0.20
2009,02,12,04,52,0.20
2009,02,12,04,53,0.20
2009,02,12,04,54,0.20
2009,02,12,04,55,0.20
2009,02,12,04,56,0.20
2009,02,12,04,57,0.20
2009,02,12,04,58,0.20
2009,02,12,04,59,0.20
2009,02,12,05,00,0.20
2009,02,12,05,01,0.20
2009,02,12,05,02,0.20
2009,02,12,05,03,0.20
2009,02,12,05,04,0.20
2009,02,12,05,05,0.20
2009,02,12,05,06,0.20
2009,02,12,05,07,0.10
2009,02,12,05,08,0.10
2009,02,12,05,09,0.10
2009,02,12,05,10,0.10
2009,02,12,05,11,0.10
2009,02,12,05,12,0.10
2009,02,12,05,13,0.10
2009,02,12,05,14,0.10
2009,02,12,05,15,0.10
2009,02,12,05,16,0.10
2009,02,12,05,17,0.10
2009,02,12,05,18,0.10
2009,02,12,05,19,0.10
2009,02,12,05,20,0.10
2009,02,12,05,21,0.10
2009,02,12,05,22,0.10
2009,02,12,05,23,0.10
2009,02,12,05,24,0.00
2009,02,12,05,25,0.00
2009,02,12,05,26,0.00
2009,02,12,05,27,0.00
2009,02,12,05,28,0.00
2009,02,12,05,29,0.00
2009,02,12,05,30,0.00
2009,02,12,05,31,0.00
2009,02,12,05,32,0.00
2009,02,12,05,33,0.00
2009,02,12,05,34,-0.10
2009,02,12,05,35,-0.10
2009,02,12,05,36,-0.10
2009,02,12,05,37,-0.10
2009,02,12,05,38,-0.10
2009,02,12,05,39,-0.10
2009,02,12,05,40,-0.10
2009,02,12,05,41,-0.10
2009,02,12,05,42,-0.10
2009,02,12,05,43,-0.10
2009,02,12,05,44,-0.20
2009,02,12,05,45,-0.20
2009,02,12,05,46,-0.20
2009,02,12,05,47,-0.20
2009,02,12,05,48,-0.20
2009,02,12,05,49,-0.30
2009,02,12,05,50,-0.30
2009,02,12,05,51,-0.30
2009,02,12,05,52,-0.30
2009,02,12,05,53,-0.30
2009,02,12,05,54,-0.30
2009,02,12,05,55,-0.30
2009,02,12,05,56,-0.40
2009,02,12,05,57,-0.40
2009,02,12,05,58,-0.40
2009,02,12,05,59,-0.40
2009,02,12,06,00,-0.40
2009,02,12,06,01,-0.40
2009,02,12,06,02,-0.40
2009,02,12,06,03,-0.40
2009,02,12,06,04,-0.40
2009,02,12,06,05,-0.40
2009,02,12,06,06,-0.40
2009,02,12,06,07,-0.40
2009,02,12,06,08,-0.40
2009,02,12,06,09,-0.40
2009,02,12,06,10,-0.40
2009,02,12,06,11,-0.40
2009,02,12,06,12,-0.40
2009,02,12,06,13,-0.40
2009,02,12,06,14,-0.40
2009,02,12,06,15,-0.40
2009,02,12,06,16,-0.40
2009,02,12,06,17,-0.40
2009,02,12,06,18,-0.30
2009,02,12,06,19,-0.30
2009,02,12,06,20,-0.30
2009,02,12,06,21,-0.30
2009,02,12,06,22,-0.30
2009,02,12,06,23,-0.30
2009,02,12,06,24,-0.30
2009,02,12,06,25,-0.30
2009,02,12,06,26,-0.30
2009,02,12,06,27,-0.30
2009,02,12,06,28,-0.30
2009,02,12,06,29,-0.30
2009,02,12,06,30,-0.30
2009,02,12,06,31,-0.30
2009,02,12,06,32,-0.30
2009,02,12,06,33,-0.30
2009,02,12,06,34,-0.30
2009,02,12,06,35,-0.30
2009,02,12,06,36,-0.30
2009,02,12,06,37,-0.30
2009,02,12,06,38,-0.30
2009,02,12,06,39,-0.30
2009,02,12,06,40,-0.30
2009,02,12,06,41,-0.30
2009,02,12,06,42,-0.30
2009,02,12,06,43,-0.30
2009,02,12,06,44,-0.30
2009,02,12,06,45,-0.30
2009,02,12,06,46,-0.30
2009,02,12,06,47,-0.30
2009,02,12,06,48,-0.30
2009,02,12,11,28,2.60
2009,02,12,11,29,2.70
2009,02,12,11,30,2.70
2009,02,12,11,31,2.70
2009,02,12,11,32,2.70
2009,02,12,11,33,2.80
2009,02,12,11,34,2.80
2009,02,12,11,35,2.80
2009,02,12,11,36,2.80
2009,02,12,11,37,2.80
2009,02,12,11,38,2.80
2009,02,12,11,39,2.80
2009,02,12,11,40,2.90
2009,02,12,11,41,2.90
2009,02,12,11,42,2.90
2009,02,12,11,43,2.90
2009,02,12,11,44,2.90
2009,02,12,11,45,2.90
2009,02,12,11,46,2.90
2009,02,12,11,47,2.90
2009,02,12,11,48,2.90
2009,02,12,11,49,3.00
2009,02,12,11,50,3.00
2009,02,12,11,51,3.00
2009,02,12,11,52,3.00
2009,02,12,11,53,3.00
2009,02,12,11,54,3.00
2009,02,12,11,55,3.00
2009,02,12,11,56,3.00
2009,02,12,11,57,3.10
2009,02,12,11,58,3.10
2009,02,12,11,59,3.10
2009,02,12,12,00,3.10
2009,02,12,12,01,3.10
2009,02,12,12,02,3.10
2009,02,12,12,03,3.10
2009,02,12,12,04,3.10
2009,02,12,12,05,3.10
2009,02,12,12,06,3.10
2009,02,12,12,07,3.10
2009,02,12,12,08,3.10
2009,02,12,12,09,3.10
2009,02,12,12,10,3.10
2009,02,12,12,11,3.20
2009,02,12,12,12,3.20
2009,02,12,12,13,3.20
2009,02,12,12,14,3.20
2009,02,12,12,15,3.20
2009,02,12,12,16,3.30
2009,02,12,12,17,3.30
2009,02,12,12,18,3.30
2009,02,12,12,19,3.30
2009,02,12,12,20,3.30
2009,02,12,12,21,3.30
2009,02,12,12,22,3.30
2009,02,12,12,23,3.30
2009,02,12,12,24,3.30
2009,02,12,12,25,3.40
2009,02,12,12,26,3.40
2009,02,12,12,27,3.40
2009,02,12,12,28,3.40
2009,02,12,12,29,3.40
2009,02,12,12,30,3.50
2009,02,12,12,31,3.50
2009,02,12,12,32,3.50
2009,02,12,12,33,3.60
2009,02,12,12,34,3.60
2009,02,12,12,35,3.60
2009,02,12,12,36,3.60
2009,02,12,12,37,3.70
2009,02,12,12,38,3.70
2009,02,12,12,39,3.70
2009,02,12,12,40,3.70
2009,02,12,12,41,3.70
2009,02,12,12,42,3.60
2009,02,12,12,43,3.60
2009,02,12,12,44,3.60
2009,02,12,12,45,3.60
2009,02,12,12,46,3.60
2009,02,12,12,47,3.70
2009,02,12,12,48,3.70
2009,02,12,12,49,3.70
2009,02,12,12,50,3.70
2009,02,12,12,51,3.70
2009,02,12,12,52,3.80
2009,02,12,12,53,3.80
2009,02,12,12,54,3.80
2009,02,12,12,55,3.80
2009,02,12,12,56,3.90
2009,02,12,12,57,3.90
2009,02,12,12,58,3.90
2009,02,12,12,59,3.90
2009,02,12,13,00,3.90
2009,02,12,13,01,3.90
2009,02,12,13,02,3.90
2009,02,12,13,03,3.90
2009,02,12,13,04,4.00
2009,02,12,13,05,4.00
2009,02,12,13,06,4.00
2009,02,12,13,07,4.00
2009,02,12,13,08,4.00
2009,02,12,13,09,4.00
2009,02,12,13,10,4.00
2009,02,12,13,11,4.00
2009,02,12,13,12,3.90
2009,02,12,13,13,3.90
2009,02,12,13,14,3.90
2009,02,12,13,15,3.90
2009,02,12,13,16,3.90
2009,02,12,13,17,3.90
2009,02,12,13,18,3.90
2009,02,12,13,19,3.90
2009,02,12,13,20,3.90
2009,02,12,13,21,3.90
2009,02,12,13,22,4.00
2009,02,12,13,23,4.00
2009,02,12,13,24,4.10
2009,02,12,13,25,4.10
2009,02,12,13,26,4.20
2009,02,12,13,27,4.20
2009,02,12,13,28,4.30
2009,02,12,13,29,4.30
2009,02,12,13,30,4.30
2009,02,12,13,31,4.40
2009,02,12,13,32,4.40
2009,02,12,13,33,4.40
2009,02,12,13,34,4.40
2009,02,12,13,35,4.30
2009,02,12,13,36,4.30
2009,02,12,13,37,4.30
2009,02,12,13,38,4.30
2009,02,12,13,39,4.30
2009,02,12,13,40,4.30
2009,02,12,13,41,4.20
2009,02,12,13,42,4.20
2009,02,12,13,43,4.20
2009,02,12,13,44,4.20
2009,02,12,13,45,4.20
2009,02,12,13,46,4.30
2009,02,12,13,47,4.30
2009,02,12,13,48,4.40
2009,02,12,13,49,4.40
2009,02,12,13,50,4.50
2009,02,12,13,51,4.60
2009,02,12,13,52,4.60
2009,02,12,13,53,4.70
2009,02,12,13,54,4.70
2009,02,12,13,55,4.80
2009,02,12,13,56,4.80
2009,02,12,13,57,4.70
2009,02,12,13,58,4.70
2009,02,12,13,59,4.70
2009,02,12,14,00,4.70
2009,02,12,14,01,4.70
2009,02,12,14,02,4.70
2009,02,12,14,03,4.70
2009,02,12,14,04,4.60
2009,02,12,14,05,4.60
2009,02,12,14,06,4.60
2009,02,12,14,07,4.60
2009,02,12,14,08,4.60
2009,02,12,14,09,4.60
2009,02,12,14,10,4.70
2009,02,12,14,11,4.70
2009,02,12,14,12,4.70
2009,02,12,14,13,4.80
2009,02,12,14,14,4.80
2009,02,12,14,15,4.80
2009,02,12,14,16,4.80
2009,02,12,14,17,4.90
2009,02,12,14,18,5.00
2009,02,12,14,19,5.00
2009,02,12,14,20,5.10
2009,02,12,14,21,5.10
2009,02,12,14,22,5.20
2009,02,12,14,23,5.20
2009,02,12,14,24,5.30
2009,02,12,14,25,5.30
2009,02,12,14,26,5.40
2009,02,12,14,27,5.50
2009,02,12,14,28,5.50
2009,02,12,14,29,5.60
2009,02,12,14,30,5.60
2009,02,12,14,31,5.60
2009,02,12,14,32,5.60
2009,02,12,14,33,5.60
2009,02,12,14,34,5.60
2009,02,12,14,35,5.50
2009,02,12,14,36,5.50
2009,02,12,14,37,5.50
2009,02,12,14,38,5.40
2009,02,12,14,39,5.40
2009,02,12,14,40,5.40
2009,02,12,14,41,5.40
2009,02,12,14,42,5.30
2009,02,12,14,43,5.30
2009,02,12,14,44,5.30
2009,02,12,14,45,5.30
2009,02,12,14,46,5.30
2009,02,12,14,47,5.30
2009,02,12,14,48,5.30
2009,02,12,14,49,5.30
2009,02,12,14,50,5.30
2009,02,12,14,51,5.30
2009,02,12,14,52,5.30
2009,02,12,14,53,5.30
2009,02,12,14,54,5.40
2009,02,12,14,55,5.40
2009,02,12,14,56,5.40
2009,02,12,14,57,5.40
2009,02,12,14,58,5.40
2009,02,12,14,59,5.40
2009,02,12,15,00,5.40
2009,02,12,15,01,5.40
2009,02,12,15,02,5.50
2009,02,12,15,03,5.40
2009,02,12,15,04,5.50
2009,02,12,15,05,5.50
2009,02,12,15,06,5.50
2009,02,12,15,07,5.40
2009,02,12,15,08,5.40
2009,02,12,15,09,5.30
2009,02,12,15,10,5.30
2009,02,12,15,11,5.20
2009,02,12,15,12,5.10
2009,02,12,15,13,5.00
2009,02,12,15,14,4.90
2009,02,12,15,15,4.80
2009,02,12,15,16,4.80
2009,02,12,15,17,4.70
2009,02,12,15,18,4.70
2009,02,12,15,19,4.60
2009,02,12,15,20,4.60
2009,02,12,15,21,4.50
2009,02,12,15,22,4.50
2009,02,12,15,23,4.40
2009,02,12,15,24,4.40
2009,02,12,15,25,4.30
2009,02,12,15,26,4.30
2009,02,12,15,27,4.30
2009,02,12,15,28,4.30
2009,02,12,15,29,4.30
2009,02,12,15,30,4.30
2009,02,12,15,31,4.30
2009,02,12,15,32,4.20
2009,02,12,15,33,4.20
2009,02,12,15,34,4.20
2009,02,12,15,35,4.20
2009,02,12,15,36,4.20
2009,02,12,15,37,4.20
2009,02,12,15,38,4.10
2009,02,12,15,39,4.10
2009,02,12,15,40,4.10
2009,02,12,15,41,4.10
2009,02,12,15,42,4.10
2009,02,12,15,43,4.10
2009,02,12,15,44,4.10
2009,02,12,15,45,4.10
2009,02,12,15,46,4.10
2009,02,12,15,47,4.10
2009,02,12,15,48,4.10
2009,02,12,15,49,4.10
2009,02,12,15,50,4.10
2009,02,12,15,51,4.10
2009,02,12,15,52,4.10
2009,02,12,15,53,4.10
2009,02,12,15,54,4.00
2009,02,12,15,55,4.00
2009,02,12,15,56,4.00
2009,02,12,15,57,4.10
2009,02,12,15,58,4.10
2009,02,12,15,59,4.10
2009,02,12,16,00,4.10
2009,02,12,16,01,4.10
2009,02,12,16,02,4.10
2009,02,12,16,03,4.10
2009,02,12,16,04,4.10
2009,02,12,16,05,4.10
2009,02,12,16,06,4.10
2009,02,12,16,07,4.10
2009,02,12,16,08,4.10
2009,02,12,16,09,4.10
2009,02,12,16,10,4.10
2009,02,12,16,11,4.10
2009,02,12,16,12,4.10
2009,02,12,16,13,4.10
2009,02,12,16,14,4.10
2009,02,12,16,15,4.10
2009,02,12,16,16,4.10
2009,02,12,16,17,4.10
2009,02,12,16,18,4.10
2009,02,12,16,19,4.10
2009,02,12,16,20,4.00
2009,02,12,16,21,4.00
2009,02,12,16,22,4.00
2009,02,12,16,23,3.90
2009,02,12,16,24,3.90
2009,02,12,16,25,3.90
2009,02,12,16,26,3.90
2009,02,12,16,27,3.90
2009,02,12,16,28,3.90
2009,02,12,16,29,3.80
2009,02,12,16,30,3.80
2009,02,12,16,31,3.80
2009,02,12,16,32,3.80
2009,02,12,16,33,3.80
2009,02,12,16,34,3.80
2009,02,12,16,35,3.80
2009,02,12,16,36,3.80
2009,02,12,16,37,3.80
2009,02,12,16,38,3.70
2009,02,12,16,39,3.70
2009,02,12,16,40,3.70
2009,02,12,16,41,3.70
2009,02,12,16,42,3.70
2009,02,12,16,43,3.70
2009,02,12,16,44,3.70
2009,02,12,16,45,3.70
2009,02,12,16,46,3.70
2009,02,12,16,47,3.70
2009,02,12,16,48,3.70
2009,02,12,16,49,3.70
2009,02,12,16,50,3.70
2009,02,12,16,51,3.70
2009,02,12,16,52,3.70
2009,02,12,16,53,3.70
2009,02,12,16,54,3.60
2009,02,12,16,55,3.60
2009,02,12,16,56,3.60
2009,02,12,16,57,3.60
2009,02,12,16,58,3.60
2009,02,12,16,59,3.60
2009,02,12,17,00,3.60
2009,02,12,17,01,3.60
2009,02,12,17,02,3.60
2009,02,12,17,03,3.60
2009,02,12,17,04,3.60
2009,02,12,17,05,3.60
2009,02,12,17,06,3.60
2009,02,12,17,07,3.60
2009,02,12,17,08,3.60
2009,02,12,17,09,3.60
2009,02,12,17,10,3.60
2009,02,12,17,11,3.50
2009,02,12,17,12,3.50
2009,02,12,17,13,3.50
2009,02,12,17,14,3.50
2009,02,12,17,15,3.50
2009,02,12,17,16,3.50
2009,02,12,17,17,3.50
2009,02,12,17,18,3.50
2009,02,12,17,19,3.50
2009,02,12,17,20,3.50
2009,02,12,17,21,3.50
2009,02,12,17,22,3.40
2009,02,12,17,23,3.30
2009,02,12,17,24,3.30
2009,02,12,17,25,3.30
2009,02,12,17,26,3.30
2009,02,12,17,27,3.30
2009,02,12,17,28,3.30
2009,02,12,17,29,3.20
2009,02,12,17,30,3.20
2009,02,12,17,31,3.20
2009,02,12,17,32,3.20
2009,02,12,17,33,3.20
2009,02,12,17,34,3.20
2009,02,12,17,35,3.20
2009,02,12,17,36,3.20
2009,02,12,17,37,3.20
2009,02,12,17,38,3.10
2009,02,12,17,39,3.10
2009,02,12,17,40,3.10
2009,02,12,17,41,3.10
2009,02,12,17,42,3.10
2009,02,12,17,43,3.10
2009,02,12,17,44,3.10
2009,02,12,17,45,3.10
2009,02,12,17,46,3.00
2009,02,12,17,47,3.00
2009,02,12,17,48,3.00
2009,02,12,17,49,3.00
2009,02,12,17,50,3.00
2009,02,12,17,51,2.90
2009,02,12,17,52,2.90
2009,02,12,17,53,2.90
2009,02,12,17,54,2.90
2009,02,12,17,55,2.90
2009,02,12,17,56,2.90
2009,02,12,17,57,2.90
2009,02,12,17,58,2.90
2009,02,12,17,59,2.80
2009,02,12,18,00,2.80
2009,02,12,18,01,2.80
2009,02,12,18,02,2.80
2009,02,12,18,03,2.80
2009,02,12,18,04,2.80
2009,02,12,18,05,2.80
2009,02,12,18,06,2.80
2009,02,12,18,07,2.80
2009,02,12,18,08,2.80
2009,02,12,18,09,2.80
2009,02,12,18,10,2.70
2009,02,12,18,11,2.70
2009,02,12,18,12,2.70
2009,02,12,18,13,2.70
2009,02,12,18,14,2.70
2009,02,12,18,15,2.70
2009,02,12,18,16,2.60
2009,02,12,18,17,2.60
2009,02,12,18,18,2.60
2009,02,12,18,19,2.60
2009,02,12,18,20,2.60
2009,02,12,18,21,2.60
2009,02,12,18,22,2.60
2009,02,12,18,23,2.50
2009,02,12,18,24,2.50
2009,02,12,18,25,2.50
2009,02,12,18,26,2.50
2009,02,12,18,27,2.50
2009,02,12,18,28,2.50
2009,02,12,18,29,2.40
2009,02,12,18,30,2.40
2009,02,12,18,31,2.40
2009,02,12,18,32,2.40
2009,02,12,18,33,2.40
2009,02,12,18,34,2.40
2009,02,12,18,35,2.40
2009,02,12,18,36,2.40
2009,02,12,18,37,2.40
2009,02,12,18,38,2.40
2009,02,12,18,39,2.40
2009,02,12,18,40,2.40
2009,02,12,18,41,2.40
2009,02,12,18,42,2.40
2009,02,12,18,43,2.40
2009,02,12,18,44,2.40
2009,02,12,18,45,2.40
2009,02,12,18,46,2.30
2009,02,12,18,47,2.30
2009,02,12,18,48,2.30
2009,02,12,18,49,2.30
2009,02,12,18,50,2.30
2009,02,12,18,51,2.30
2009,02,12,18,52,2.30
2009,02,12,18,53,2.30
2009,02,12,18,54,2.30
2009,02,12,18,55,2.30
2009,02,12,18,56,2.30
2009,02,12,18,57,2.30
2009,02,12,18,58,2.30
2009,02,12,18,59,2.20
2009,02,12,19,00,2.20
2009,02,12,19,01,2.20
2009,02,12,19,02,2.20
2009,02,12,19,03,2.20
2009,02,12,19,04,2.20
2009,02,12,19,05,2.20
2009,02,12,19,06,2.20
2009,02,12,19,07,2.20
2009,02,12,19,08,2.20
2009,02,12,19,09,2.20
2009,02,12,19,10,2.20
2009,02,12,19,11,2.20
2009,02,12,19,12,2.20
2009,02,12,19,13,2.20
2009,02,12,19,14,2.20
2009,02,12,19,15,2.20
2009,02,12,19,16,2.20
2009,02,12,19,17,2.10
2009,02,12,19,18,2.10
2009,02,12,19,19,2.10
2009,02,12,19,20,2.10
2009,02,12,19,21,2.10
2009,02,12,19,22,2.10
2009,02,12,19,23,2.10
2009,02,12,19,24,2.10
2009,02,12,19,25,2.10
2009,02,12,19,26,2.10
2009,02,12,19,27,2.10
2009,02,12,19,28,2.10
2009,02,12,19,29,2.00
2009,02,12,19,30,2.00
2009,02,12,19,31,2.00
2009,02,12,19,32,2.00
2009,02,12,19,33,2.00
2009,02,12,19,34,2.00
2009,02,12,19,35,2.00
2009,02,12,19,36,2.00
2009,02,12,19,37,2.00
2009,02,12,19,38,1.90
2009,02,12,19,39,1.90
2009,02,12,19,40,1.90
2009,02,12,19,41,1.90
2009,02,12,19,42,1.90
2009,02,12,19,43,1.90
2009,02,12,19,44,1.90
2009,02,12,19,45,1.90
2009,02,12,19,46,1.90
2009,02,12,19,47,1.80
2009,02,12,19,48,1.80
2009,02,12,19,49,1.80
2009,02,12,19,50,1.80
2009,02,12,19,51,1.80
2009,02,12,19,52,1.80
2009,02,12,19,53,1.80
2009,02,12,19,54,1.80
2009,02,12,19,55,1.80
2009,02,12,19,56,1.80
2009,02,12,19,57,1.70
2009,02,12,19,58,1.70
2009,02,12,19,59,1.70
2009,02,12,20,00,1.70
2009,02,12,20,01,1.70
2009,02,12,20,02,1.70
2009,02,12,20,03,1.70
2009,02,12,20,04,1.70
2009,02,12,20,05,1.70
2009,02,12,20,06,1.70
2009,02,12,20,07,1.70
2009,02,12,20,08,1.60
2009,02,12,20,09,1.60
2009,02,12,20,10,1.60
2009,02,12,20,11,1.60
2009,02,12,20,12,1.60
2009,02,12,20,13,1.60
2009,02,12,20,14,1.60
2009,02,12,20,15,1.60
2009,02,12,20,16,1.60
2009,02,12,20,17,1.60
2009,02,12,20,18,1.60
2009,02,12,20,19,1.60
2009,02,12,20,20,1.60
2009,02,12,20,21,1.60
2009,02,12,20,22,1.60
2009,02,12,20,23,1.60
2009,02,12,20,24,1.60
2009,02,12,20,25,1.60
2009,02,12,20,26,1.60
2009,02,12,20,27,1.60
2009,02,12,20,28,1.50
2009,02,12,20,29,1.60
2009,02,12,20,30,1.60
2009,02,12,20,31,1.60
2009,02,12,20,32,1.60
2009,02,12,20,33,1.60
2009,02,12,20,34,1.60
2009,02,12,20,35,1.50
2009,02,12,20,36,1.50
2009,02,12,20,37,1.50
2009,02,12,20,38,1.50
2009,02,12,20,39,1.50
2009,02,12,20,40,1.50
2009,02,12,20,41,1.50
2009,02,12,20,42,1.50
2009,02,12,20,43,1.50
2009,02,12,20,44,1.50
2009,02,12,20,45,1.40
2009,02,12,20,46,1.50
2009,02,12,20,47,1.50
2009,02,12,20,48,1.50
2009,02,12,20,49,1.50
2009,02,12,20,50,1.50
2009,02,12,20,51,1.50
2009,02,12,20,52,1.50
2009,02,12,20,53,1.50
2009,02,12,20,54,1.50
2009,02,12,20,55,1.50
2009,02,12,20,56,1.50
2009,02,12,20,57,1.50
2009,02,12,20,58,1.50
2009,02,12,20,59,1.50
2009,02,12,21,00,1.50
2009,02,12,21,01,1.40
2009,02,12,21,02,1.40
2009,02,12,21,03,1.40
2009,02,12,21,04,1.40
2009,02,12,21,05,1.40
2009,02,12,21,06,1.40
2009,02,12,21,07,1.40
2009,02,12,21,08,1.40
2009,02,12,21,09,1.30
2009,02,12,21,10,1.30
2009,02,12,21,11,1.30
2009,02,12,21,12,1.30
2009,02,12,21,13,1.30
2009,02,12,21,14,1.30
2009,02,12,21,15,1.30
2009,02,12,21,16,1.30
2009,02,12,21,17,1.30
2009,02,12,21,18,1.30
2009,02,12,21,19,1.30
2009,02,12,21,20,1.30
2009,02,12,21,21,1.30
2009,02,12,21,22,1.30
2009,02,12,21,23,1.30
2009,02,12,21,24,1.30
2009,02,12,21,25,1.30
2009,02,12,21,26,1.30
2009,02,12,21,27,1.30
2009,02,12,21,28,1.30
2009,02,12,21,29,1.30
2009,02,12,21,30,1.30
2009,02,12,21,31,1.30
2009,02,12,21,32,1.30
2009,02,12,21,33,1.30
2009,02,12,21,34,1.30
2009,02,12,21,35,1.30
2009,02,12,21,36,1.30
2009,02,12,21,37,1.30
2009,02,12,21,38,1.30
2009,02,12,21,39,1.30
2009,02,12,21,40,1.30
2009,02,12,21,41,1.30
2009,02,12,21,42,1.30
2009,02,12,21,43,1.30
2009,02,12,21,44,1.30
2009,02,12,21,45,1.30
2009,02,12,21,46,1.30
2009,02,12,21,47,1.30
2009,02,12,21,48,1.30
2009,02,12,21,49,1.30
2009,02,12,21,50,1.30
2009,02,12,21,51,1.30
2009,02,12,21,52,1.30
2009,02,12,21,53,1.30
2009,02,12,21,54,1.30
2009,02,12,21,55,1.30
2009,02,12,21,56,1.30
2009,02,12,21,57,1.30
2009,02,12,21,58,1.30
2009,02,12,21,59,1.30
2009,02,12,22,00,1.30
2009,02,12,22,01,1.30
2009,02,12,22,02,1.30
2009,02,12,22,03,1.30
2009,02,12,22,04,1.30
2009,02,12,22,05,1.30
2009,02,12,22,06,1.30
2009,02,12,22,07,1.30
2009,02,12,22,08,1.30
2009,02,12,22,09,1.30
2009,02,12,22,10,1.30
2009,02,12,22,11,1.30
2009,02,12,22,12,1.30
2009,02,12,22,13,1.30
2009,02,12,22,14,1.30
2009,02,12,22,15,1.30
2009,02,12,22,16,1.30
2009,02,12,22,17,1.30
2009,02,12,22,18,1.30
2009,02,12,22,19,1.30
2009,02,12,22,20,1.30
2009,02,12,22,21,1.30
2009,02,12,22,22,1.30
2009,02,12,22,23,1.30
2009,02,12,22,24,1.30
2009,02,12,22,25,1.30
2009,02,12,22,26,1.30
2009,02,12,22,27,1.30
2009,02,12,22,28,1.30
2009,02,12,22,29,1.30
2009,02,12,22,30,1.30
2009,02,12,22,31,1.30
2009,02,12,22,32,1.30
2009,02,12,22,33,1.30
2009,02,12,22,34,1.30
2009,02,12,22,35,1.30
2009,02,12,22,36,1.30
2009,02,12,22,37,1.30
2009,02,12,22,38,1.30
2009,02,12,22,39,1.30
2009,02,12,22,40,1.30
2009,02,12,22,41,1.30
2009,02,12,22,42,1.30